Theta_e
298 298 299 299 299 299 298 298 298 299 298 298 299 300 301 303 303 303 303 300 298 297 297 296 296 296 296 295 295 294 293 293
298 297 298 298 298 298 297 297 297 298 298 297 297 297 299 300 301 301 300 297 296 295 295 295 294 293 293 293 293 292 292 291
295 295 295 295 296 296 297 296 297 297 297 297 296 296 296 297 298 298 297 296 294 294 294 293 293 292 292 292 292 291 290 289
293 293 293 294 296 296 296 297 298 297 296 295 295 294 294 294 295 296 295 294 293 293 293 293 292 292 291 291 291 290 290 288
292 292 293 294 294 295 296 296 296 296 295 294 294 294 293 293 293 293 293 292 291 291 291 291 291 290 290 290 290 290 290 289
291 291 291 292 292 293 293 294 294 293 293 294 295 294 292 291 290 291 290 291 291 290 289 289 289 290 287 287 288 288 287 287
291 291 291 291 291 292 291 290 290 290 290 291 291 291 290 289 289 287 287 287 287 287 288 288 289 291 291 289 287 286 286 285
289 289 289 289 290 289 288 288 287 287 287 287 287 287 288 288 288 287 287 287 286 287 286 286 287 291 291 290 287 286 285 284
288 287 287 287 287 287 286 285 284 284 284 284 285 284 285 286 286 286 286 285 286 286 285 285 287 290 290 290 287 285 284 284
287 286 285 285 284 283 283 282 282 282 282 282 282 282 282 283 284 285 284 284 284 286 285 284 286 289 290 289 286 284 283 283
284 283 282 282 281 281 281 281 280 281 281 281 281 280 280 281 282 283 284 285 285 285 284 284 285 288 289 290 285 282 282 281
282 280 280 280 280 279 279 279 280 280 280 280 279 279 280 281 281 282 282 283 283 283 284 283 284 285 288 290 285 283 281 281
279 279 279 279 278 278 277 278 278 277 277 277 277 278 279 279 280 280 280 281 281 281 281 282 282 284 286 289 289 285 282 281
277 277 277 277 277 275 276 275 275 274 273 274 275 276 278 278 278 278 279 279 279 280 280 280 281 281 286 287 288 287 282 281
274 274 274 275 274 273 273 273 271 270 271 272 273 274 275 277 277 277 277 278 279 279 279 280 281 281 282 283 285 286 283 281
272 272 272 272 271 271 271 270 269 269 270 270 271 271 272 274 275 276 278 279 278 279 280 280 280 281 283 283 283 284 282 278
269 268 268 268 268 268 268 267 267 267 267 267 268 269 270 272 273 278 279 280 281 282 283 283 284 285 285 285 286 286 284 277
266 266 266 265 265 264 264 265 264 264 264 265 266 268 269 270 271 271 274 278 279 280 281 282 285 285 285 286 285 286 284 276
263 263 263 262 263 263 262 261 263 263 263 264 266 267 268 269 269 271 271 270 272 277 279 280 281 282 285 285 284 282 283 277
260 259 260 260 262 262 263 263 263 262 263 264 265 267 268 269 269 270 270 270 271 273 276 277 280 282 284 284 281 280 280 274
Wind_Speed
3 1 3 4 5 4 3 5 6 6 5 5 6 6 6 6 6 7 6 5 6 6 6 6 6 6 6 4 4 6 4 4
7 9 8 8 8 8 7 7 7 5 5 6 7 7 7 6 6 6 6 6 6 6 7 7 7 6 6 6 7 7 6 5
8 6 7 6 6 6 6 5 6 6 6 7 7 6 6 7 7 6 8 6 7 7 7 7 7 7 8 8 7 8 8 7
6 5 5 8 12 12 11 11 10 7 7 7 8 7 8 8 8 7 7 7 7 7 9 9 10 10 10 10 9 10 10 10
9 8 9 10 11 12 13 12 12 12 9 8 9 9 8 8 8 9 8 8 9 9 9 9 9 10 9 10 10 10 10 10
7 7 7 10 9 8 8 11 13 12 11 11 12 12 9 8 8 9 8 10 10 9 9 9 9 9 8 7 7 9 7 7
8 9 10 11 11 11 11 12 11 10 10 11 12 12 11 11 11 8 9 9 8 10 11 11 10 14 15 13 10 9 10 10
7 7 7 8 9 8 10 10 10 10 9 9 9 11 11 10 10 11 12 10 11 13 11 14 13 16 18 18 10 11 11 12
5 6 7 9 9 11 10 9 9 9 9 10 12 13 12 12 11 11 8 11 12 13 12 13 13 19 20 18 12 11 12 12
3 4 7 8 10 10 9 10 11 10 12 12 12 14 15 15 14 12 10 11 11 13 13 13 16 18 21 17 12 12 12 11
6 5 6 8 9 11 11 10 10 13 14 13 12 13 15 15 15 12 12 13 10 12 12 14 16 17 22 20 10 13 10 11
6 5 6 7 10 11 10 10 13 14 14 14 13 14 14 15 12 13 13 13 13 13 12 13 13 14 23 26 13 12 10 9
9 10 9 6 9 12 11 12 14 14 15 15 14 12 12 15 15 14 13 13 13 12 12 9 11 17 22 25 28 19 10 10
8 12 10 8 9 11 12 13 14 14 14 14 15 13 12 14 14 13 12 11 12 10 10 10 7 8 22 24 27 26 13 9
9 10 12 10 11 10 12 12 12 13 14 14 14 15 13 11 10 11 10 11 10 11 10 10 8 8 8 10 13 22 17 17
7 8 10 10 11 11 12 12 13 13 13 13 11 13 14 12 11 11 12 13 13 12 11 11 12 9 13 12 10 10 10 8
6 6 9 9 9 9 9 9 11 13 11 11 11 11 11 12 14 17 23 25 25 27 22 12 20 23 19 22 22 18 21 9
9 8 8 8 9 7 6 7 10 11 12 10 11 10 11 12 12 16 15 23 24 24 24 28 25 25 21 19 23 22 22 11
7 9 7 7 8 7 7 6 9 9 12 9 10 10 10 11 12 12 13 16 12 16 21 21 26 27 24 17 17 10 17 9
7 7 6 7 9 7 9 9 10 9 8 9 9 10 12 10 11 11 12 12 13 12 14 16 21 25 16 14 7 8 8 8
Wind_Direction
76 4 319 328 323 331 321 302 300 306 294 289 286 275 271 278 276 262 261 242 212 213 219 226 229 221 202 200 203 192 196 188
22 11 5 354 346 333 329 313 317 308 294 293 289 297 299 287 274 267 264 239 225 218 220 223 221 214 207 206 200 199 196 193
42 30 20 1 4 355 337 316 286 280 278 277 278 281 284 280 283 279 268 252 235 227 224 220 217 213 212 212 204 199 199 196
41 26 4 11 12 3 356 345 333 321 302 295 284 274 263 260 257 256 256 250 245 234 231 229 225 219 217 212 206 205 199 194
23 10 9 9 5 354 351 353 350 340 314 297 287 277 269 269 259 255 246 243 237 233 234 232 234 231 229 225 219 215 210 202
16 4 360 3 356 352 349 347 342 338 340 327 316 305 297 286 274 268 245 244 240 241 238 236 229 230 220 217 216 214 208 203
16 9 2 354 348 344 345 341 337 338 335 333 333 328 314 306 296 276 266 258 242 238 238 237 238 237 218 206 212 210 207 208
8 357 342 340 336 332 330 331 335 330 329 327 327 323 319 309 302 295 281 266 250 253 240 241 237 228 218 212 220 214 208 198
356 341 342 341 342 334 330 324 328 324 326 328 329 320 315 313 303 298 278 264 264 259 244 247 245 225 218 210 216 223 221 210
2 334 336 342 334 327 336 343 337 336 330 327 327 318 316 312 310 301 288 276 262 259 252 242 250 235 224 206 211 221 220 213
353 358 350 338 338 335 338 334 327 330 318 318 314 312 309 306 303 300 289 279 274 260 249 240 249 238 227 217 213 224 215 203
6 359 338 336 337 326 328 325 322 318 314 312 315 311 303 300 299 296 293 284 275 263 257 245 238 238 223 221 208 222 218 208
1 341 342 329 339 331 328 328 319 318 313 312 312 311 309 302 303 301 295 288 281 273 270 255 243 233 230 224 215 211 213 217
359 330 335 334 339 323 319 322 321 318 311 311 310 307 304 303 304 304 301 289 285 275 270 270 248 239 235 232 223 213 212 193
343 334 321 323 320 315 318 322 317 315 316 315 316 315 311 304 299 297 297 293 286 282 275 274 263 242 234 236 237 220 204 197
312 299 299 307 311 312 321 323 325 321 319 317 315 314 312 306 302 298 292 290 293 287 286 283 273 258 244 231 228 218 196 164
282 285 296 305 306 309 314 320 323 320 320 320 316 316 310 309 309 302 300 304 300 297 288 278 271 267 259 243 239 226 179 171
303 293 292 298 309 302 303 308 314 310 310 310 309 308 313 316 312 312 314 309 309 307 303 302 287 287 259 249 240 228 185 190
308 306 300 298 296 295 292 293 302 301 296 297 305 305 307 310 313 308 311 317 318 314 312 303 300 294 281 247 241 237 203 189
293 297 308 310 304 309 322 320 316 309 310 313 311 308 309 308 310 310 312 310 312 317 318 317 302 307 289 253 251 250 223 166